This is the latest recevied weather packets stored in our database for station/object SR9WXJ. If no packets are shown the sender has not sent any weather packets the latest 10 day(s).
| Time | Temp. | Humidity | Pressure | Rain* | Wind** | Luminosity | Snow |
|---|---|---|---|---|---|---|---|
| 1788005760 | 21.11° C | 100% | 795.3 hPa | - | - | - | - |
| 1788005449 | 20.56° C | 100% | 795.3 hPa | - | - | - | - |
| 1788005138 | 20° C | 100% | 795.3 hPa | - | - | - | - |
| 1788004827 | 19.44° C | 100% | 795.3 hPa | - | - | - | - |
| 1788004528 | 19.44° C | 100% | 795.3 hPa | - | - | - | - |
| 1788004217 | 20° C | 100% | 795.3 hPa | - | - | - | - |
| 1788003907 | 20° C | 100% | 795.3 hPa | - | - | - | - |
| 1788003596 | 20° C | 100% | 795.5 hPa | - | - | - | - |
| 1788002973 | 20° C | 100% | 795.5 hPa | - | - | - | - |
| 1788002674 | 19.44° C | 100% | 795.7 hPa | - | - | - | - |
| 1788002363 | 20° C | 100% | 795.7 hPa | - | - | - | - |
| 1788002052 | 20° C | 100% | 795.7 hPa | - | - | - | - |
| 1788001741 | 18.89° C | 100% | 0 hPa | - | - | - | - |
| 1788001492 | 18.33° C | 100% | 796.9 hPa | - | - | - | - |
| 1788001181 | 17.78° C | 100% | 797.6 hPa | - | - | - | - |
| 1788000259 | 19.44° C | 100% | 798.4 hPa | - | - | - | - |
| 1787999948 | 18.33° C | 100% | 799.8 hPa | - | - | - | - |
| 1787999639 | 18.33° C | 100% | 799.8 hPa | - | - | - | - |
| 1787999335 | 18.33° C | 100% | 799.8 hPa | - | - | - | - |
| 1787999024 | 17.78° C | 100% | 799.8 hPa | - | - | - | - |
| 1787998713 | 17.22° C | 100% | 799.8 hPa | - | - | - | - |
| 1787998402 | 16.67° C | 100% | 799.8 hPa | - | - | - | - |
| 1787998102 | 16.11° C | 100% | 799.8 hPa | - | - | - | - |
| 1787997791 | 16.11° C | 100% | 799.8 hPa | - | - | - | - |
| 1787997480 | 16.67° C | 100% | 799.8 hPa | - | - | - | - |
* Rain since midnight (hover to see other rain measurements)
** Current wind speed in m/s (hover to see current wind gust speed)